HS5NMF Weather Reports


Display with metric or nautical units.
time (UTC)temp
F
wind
direction
speed
MPH
gust
MPH
rain 1hr
in
rain 24hr
in
rain mn
in
humidity
%
barometer
mb
20260509113417 91 0 0.0 0.0 0.00 0.00 0.00 65 975.0
20260509112851 91 0 0.0 0.0 0.00 0.00 0.00 66 975.0
20260509112330 0 0 0.0 0.0 0.00 0.00 0.00 63 975.0
20260509111806 92 0 0.0 0.0 0.00 0.00 0.00 62 975.0
20260509111244 93 0 0.0 0.0 0.00 0.00 0.00 61 975.0
20260509110719 93 0 0.0 0.0 0.00 0.00 0.00 61 975.0
20260509110153 94 0 0.0 0.0 0.00 0.00 0.00 60 975.0
20260509105629 94 0 0.0 0.0 0.00 0.00 0.00 60 975.0
20260509105106 94 0 0.0 0.0 0.00 0.00 0.00 60 975.0
20260509104543 95 0 0.0 0.0 0.00 0.00 0.00 58 975.0
20260509104020 96 0 0.0 0.0 0.00 0.00 0.00 55 975.0
20260509103457 97 0 0.0 0.0 0.00 0.00 0.00 55 974.0
20260509102934 96 0 0.0 0.0 0.00 0.00 0.00 55 974.0
20260509102410 96 0 0.0 0.0 0.00 0.00 0.00 55 974.0
20260509101848 96 0 0.0 0.0 0.00 0.00 0.00 55 974.0
20260509101323 96 0 0.0 0.0 0.00 0.00 0.00 55 974.0
20260509100801 96 0 0.0 0.0 0.00 0.00 0.00 54 974.0
20260509100238 96 0 0.0 0.0 0.00 0.00 0.00 54 974.0
20260509095714 96 0 0.0 0.0 0.00 0.00 0.00
20260509095152 96 0 0.0 0.0 0.00 0.00 0.00 53 974.0
20260509094627 96 0 0.0 0.0 0.00 0.00 0.00 54 974.0
20260509094103 96 0 0.0 0.0 0.00 0.00 0.00 53 974.0
20260509093541 96 0 0.0 0.0 0.00 0.00 0.00 54 974.0
20260509093027 96 0 0.0 0.0 0.00 0.00 0.00 54 974.0
20260509093017 96 0 0.0 0.0 0.00 0.00 0.00 54 974.0
20260509092454 98 0 0.0 0.0 0.00 0.00 0.00 52 975.0
20260509091931 97 0 0.0 0.0 0.00 0.00 0.00 53 974.0
20260509091409 97 0 0.0 0.0 0.00 0.00 0.00 53
20260509090846 97 0 0.0 0.0 0.00 0.00 0.00 53 974.0
20260509090322 97 0 0.0 0.0 0.00 0.00 0.00 52 975.0
20260509085759 97 0 0.0 0.0 0.00 0.00 0.00 52 975.0
20260509085236 97 0 0.0 0.0 0.00 0.00 0.00 51 975.0
20260509084713 97 0 0.0 0.0 0.00 0.00 0.00 51 975.0
20260509084150 97 0 0.0 0.0 0.00 0.00 0.00 51 975.0
20260509083627 97 0 0.0 0.0 0.00 0.00 0.00 51 975.0
20260509083102 97 0 0.0 0.0 0.00 0.00 0.00 51 975.0
20260509082539 96 0 0.0 0.0 0.00 0.00 0.00 51 975.0
20260509082018 96 0 0.0 0.0 0.00 0.00 0.00 51 975.0
20260509081454 96 0 0.0 0.0 0.00 0.00 0.00 51 975.0
20260509080931 96 0 0.0 0.0 0.00 0.00 0.00 51 976.0
20260509080409 96 0 0.0 0.0 0.00 0.00 0.00 50 976.0
20260509075846 96 0 0.0 0.0 0.00 0.00 0.00 50 976.0
20260509075323 96 0 0.0 0.0 0.00 0.00 0.00 49 976.0
20260509074801 96 0 0.0 0.0 0.00 0.00 0.00 50 976.0
20260509074238 95 0 0.0 0.0 0.00 0.00 0.00 50 976.0
20260509073713 95 0 0.0 0.0 0.00 0.00 0.00 50 976.0
20260509073151 95 0 0.0 0.0 0.00 0.00 0.00 48 976.0
20260509072629 95 0 0.0 0.0 0.00 0.00 0.00 50 976.0
20260509072051 96 0 0.0 0.0 0.00 0.00 0.00 50 976.0
20260509071528 96 0 0.0 0.0 0.00 0.00 0.00 53 976.0
20260509071006 96 0 0.0 0.0 0.00 0.00 0.00 53 976.0
20260509070443 96 0 0.0 0.0 0.00 0.00 0.00 53 976.0
20260509065918 96 0 0.0 0.0 0.00 0.00 0.00 53 976.0
20260509065353 96 0 0.0 0.0 0.00 0.00 0.00 53 976.0
20260509064841 96 0 0.0 0.0 0.00 0.00 0.00
20260509064830 96 0 0.0 0.0 0.00 0.00 0.00 54 976.0
20260509064307 96 0 0.0 0.0 0.00 0.00 0.00 53 977.0
20260509063756 96 0 0.0 0.0 0.00 0.00 0.00 53 977.0
20260509063743 96 0 0.0 0.0 0.00 0.00 0.00 53 977.0
20260509063221 96 0 0.0 0.0 0.00 0.00 0.00
20260509062657 96 0 0.0 0.0 0.00 0.00 0.00 53 977.0
20260509062133 96 0 0.0 0.0 0.00 0.00 0.00 53 977.0
20260509061607 96 0 0.0 0.0 0.00 0.00 0.00 53 977.0
20260509061044 0 0 0.0 0.0 0.00 0.00 0.00 54 977.0
20260509060520 95 0 0.0 0.0 0.00 0.00 0.00 55 977.0
20260509055958 95 0 0.0 0.0 0.00 0.00 0.00 54 978.0
20260509055431 95 0 0.0 0.0 0.00 0.00 0.00 55 978.0
20260509054907 95 0 0.0 0.0 0.00 0.00 0.00 56 978.0
20260509054347 95 0 0.0 0.0 0.00 0.00 0.00 56 978.0
20260509053817 95 0 0.0 0.0 0.00 0.00 0.00 57 978.0
20260509053806 95 0 0.0 0.0 0.00 0.00 0.00 57 978.0
20260509053240 95 0 0.0 0.0 0.00 0.00 0.00 57 978.0
20260509052717 95 0 0.0 0.0 0.00 0.00 0.00 58 978.0
20260509052140 95 0 0.0 0.0 0.00 0.00 0.00 58 979.0
20260509051600 95 0 0.0 0.0 0.00 0.00 0.00 58 979.0
20260509051517 95 0 0.0 0.0 0.00 0.00 0.00 58 979.0
20260509050954 94 0 0.0 0.0 0.00 0.00 0.00 59 979.0
20260509050427 94 0 0.0 0.0 0.00 0.00 0.00 59 979.0
20260509045904 94 0 0.0 0.0 0.00 0.00 0.00 59 979.0
20260509045341 94 0 0.0 0.0 0.00 0.00 0.00 60 979.0
20260509044816 94 0 0.0 0.0 0.00 0.00 0.00 60 979.0
20260509044253 94 0 0.0 0.0 0.00 0.00 0.00 61 979.0
20260509043729 94 0 0.0 0.0 0.00 0.00 0.00 61 979.0
20260509043204 94 0 0.0 0.0 0.00 0.00 0.00 61 979.0
20260509042639 94 0 0.0 0.0 0.00 0.00 0.00 61 979.0
20260509042114 94 0 0.0 0.0 0.00 0.00 0.00 61 979.0
20260509041551 94 0 0.0 0.0 0.00 0.00 0.00 61 979.0
20260509041022 95 0 0.0 0.0 0.00 0.00 0.00 61 979.0
20260509040457 94 0 0.0 0.0 0.00 0.00 0.00 61 980.0
20260509035935 94 0 0.0 0.0 0.00 0.00 0.00 61 980.0
20260509035411 94 0 0.0 0.0 0.00 0.00 0.00 62 980.0
20260509034848 94 0 0.0 0.0 0.00 0.00 0.00 62 980.0
20260509034322 93 0 0.0 0.0 0.00 0.00 0.00 62 980.0
20260509033759 93 0 0.0 0.0 0.00 0.00 0.00 62 980.0
20260509033233 93 0 0.0 0.0 0.00 0.00 0.00 62 980.0
20260509032710 93 0 0.0 0.0 0.00 0.00 0.00 63 980.0
20260509032146 93 0 0.0 0.0 0.00 0.00 0.00 62 980.0
20260509031622 94 0 0.0 0.0 0.00 0.00 0.00 61 980.0
20260509031102 93 0 0.0 0.0 0.00 0.00 0.00 62 980.0
20260509030534 93 0 0.0 0.0 0.00 0.00 0.00 63 980.0
20260509030010 92 0 0.0 0.0 0.00 0.00 0.00 64 980.0
20260509025447 90 0 0.0 0.0 0.00 0.00 0.00 67 980.0
20260509024922 91 0 0.0 0.0 0.00 0.00 0.00 67 980.0
20260509024356 91 0 0.0 0.0 0.00 0.00 0.00 66 980.0
20260509023831 92 0 0.0 0.0 0.00 0.00 0.00 65 980.0
20260509023310 92 0 0.0 0.0 0.00 0.00 0.00 65 980.0
20260509022741 92 0 0.0 0.0 0.00 0.00 0.00 65 980.0
20260509022216 92 0 0.0 0.0 0.00 0.00 0.00 65 980.0
20260509021650 92 0 0.0 0.0 0.00 0.00 0.00 65 980.0
20260509021124 92 0 0.0 0.0 0.00 0.00 0.00 65 980.0
20260509020601 92 0 0.0 0.0 0.00 0.00 0.00 65 980.0
20260509020038 92 0 0.0 0.0 0.00 0.00 0.00 67 980.0
20260509015512 91 0 0.0 0.0 0.00 0.00 0.00 69 980.0
20260509014948 90 0 0.0 0.0 0.00 0.00 0.00
20260509014424 89 0 0.0 0.0 0.00 0.00 0.00 73 980.0
20260509013901 89 0 0.0 0.0 0.00 0.00 0.00 74 980.0
20260509013336 88 0 0.0 0.0 0.00 0.00 0.00 74 980.0
20260509012810 88 0 0.0 0.0 0.00 0.00 0.00 75 980.0
20260509012245 87 0 0.0 0.0 0.00 0.00 0.00 79 980.0
20260509011720 86 0 0.0 0.0 0.00 0.00 0.00 80 980.0
20260509011156 86 0 0.0 0.0 0.00 0.00 0.00 80 980.0
20260509010632 85 0 0.0 0.0 0.00 0.00 0.00 81 980.0
20260509010105 86 0 0.0 0.0 0.00 0.00 0.00 81 980.0
20260509005540 84 0 0.0 0.0 0.00 0.00 0.00 85 980.0
20260509005016 84 0 0.0 0.0 0.00 0.00 0.00 84 980.0
20260509004449 84 0 0.0 0.0 0.00 0.00 0.00 84 980.0
20260509003925 0 0 0.0 0.0 0.00 0.00 0.00 83 980.0
20260509003400 83 0 0.0 0.0 0.00 0.00 0.00 86 980.0
20260509002835 83 0 0.0 0.0 0.00 0.00 0.00 86 980.0
20260509002311 82 0 0.0 0.0 0.00 0.00 0.00 89 980.0
20260509001801 82 0 0.0 0.0 0.00 0.00 0.00 88 980.0
20260509001748 82 0 0.0 0.0 0.00 0.00 0.00 88 980.0
20260509001224 83 0 0.0 0.0 0.00 0.00 0.00 85 980.0
20260509000658 82 0 0.0 0.0 0.00 0.00 0.00 88 980.0
20260509000135 83 0 0.0 0.0 0.00 0.00 0.00 85 980.0
20260508235610 83 0 0.0 0.0 0.00 0.00 0.00 87 980.0
20260508235049 83 0 0.0 0.0 0.00 0.00 0.00 980.0
20260508235045 83 0 0.0 0.0 0.00 0.00 0.00 86 980.0
20260508234520 82 0 0.0 0.0 0.00 0.00 0.00 88 979.0
20260508233955 82 0 0.0 0.0 0.00 0.00 0.00 90 979.0
20260508233436 0 0 0.0 0.0 0.00 0.00 0.00 89 979.0
20260508233431 82 0 0.0 0.0 0.00 0.00 0.00 89 979.0
20260508232907 81 0 0.0 0.0 0.00 0.00 0.00 89 979.0
20260508232340 82 0 0.0 0.0 0.00 0.00 0.00
20260508231816 82 0 0.0 0.0 0.00 0.00 0.00 87 979.0
20260508231251 82 0 0.0 0.0 0.00 0.00 0.00 85 979.0
20260508230726 82 0 0.0 0.0 0.00 0.00 0.00 84 979.0
20260508230201 83 0 0.0 0.0 0.00 0.00 0.00 81 979.0
20260508225636 83 0 0.0 0.0 0.00 0.00 0.00 81 979.0
20260508225121 83 0 0.0 0.0 0.00 0.00 0.00 81 979.0
20260508225110 83 0 0.0 0.0 0.00 0.00 0.00 81 979.0
20260508224546 83 0 0.0 0.0 0.00 0.00 0.00 84 979.0
20260508224022 82 0 0.0 0.0 0.00 0.00 0.00 86 979.0
20260508223459 81 0 0.0 0.0 0.00 0.00 0.00 88 979.0
20260508222934 82 0 0.0 0.0 0.00 0.00 0.00 83 979.0
20260508222410 83 0 0.0 0.0 0.00 0.00 0.00 82 978.0
20260508221847 82 0 0.0 0.0 0.00 0.00 0.00 83 978.0
20260508221324 83 0 0.0 0.0 0.00 0.00 0.00 978.0
20260508220756 83 0 0.0 0.0 0.00 0.00 0.00 79 978.0
20260508220231 83 0 0.0 0.0 0.00 0.00 0.00 81 978.0
20260508215708 82 0 0.0 0.0 0.00 0.00 0.00 82 978.0
20260508215141 83 0 0.0 0.0 0.00 0.00 0.00 82 978.0
20260508214636 83 0 0.0 0.0 0.00 0.00 0.00 80 978.0
20260508214619 83 0 0.0 0.0 0.00 0.00 0.00 80 978.0
20260508214053 83 0 0.0 0.0 0.00 0.00 0.00 80 978.0
20260508213538 83 0 0.0 0.0 0.00 0.00 0.00 79 978.0
20260508213529 83 0 0.0 0.0 0.00 0.00 0.00 79 978.0
20260508213005 83 0 0.0 0.0 0.00 0.00 0.00 79 978.0
20260508212441 83 0 0.0 0.0 0.00 0.00 0.00 81 978.0
20260508211912 83 0 0.0 0.0 0.00 0.00 0.00 81 977.0
20260508211349 83 0 0.0 0.0 0.00 0.00 0.00 82 977.0
20260508210825 82 0 0.0 0.0 0.00 0.00 0.00 84 977.0
20260508210259 81 0 0.0 0.0 0.00 0.00 0.00 87 977.0
20260508205734 82 0 0.0 0.0 0.00 0.00 0.00 83 977.0
20260508205209 81 0 0.0 0.0 0.00 0.00 0.00 977.0
20260508204644 82 0 0.0 0.0 0.00 0.00 0.00 82 977.0
20260508204119 82 0 0.0 0.0 0.00 0.00 0.00 84 977.0
20260508203554 82 0 0.0 0.0 0.00 0.00 0.00 84 977.0
20260508203039 82 0 0.0 0.0 0.00 0.00 0.00 82 977.0
20260508203031 82 0 0.0 0.0 0.00 0.00 0.00 977.0
20260508203029 82 0 0.0 0.0 0.00 0.00 0.00 82 977.0
20260508202505 81 0 0.0 0.0 0.00 0.00 0.00 86 977.0
20260508201943 81 0 0.0 0.0 0.00 0.00 0.00 88 977.0
20260508201416 82 0 0.0 0.0 0.00 0.00 0.00 86 977.0
20260508200851 82 0 0.0 0.0 0.00 0.00 0.00 86 977.0
20260508200326 82 0 0.0 0.0 0.00 0.00 0.00 88 977.0
20260508195802 81 0 0.0 0.0 0.00 0.00 0.00 91 977.0
20260508195237 81 0 0.0 0.0 0.00 0.00 0.00 91 977.0
20260508194712 81 0 0.0 0.0 0.00 0.00 0.00 93 977.0
20260508194148 81 0 0.0 0.0 0.00 0.00 0.00 96 977.0
20260508193623 81 0 0.0 0.0 0.00 0.00 0.00 96 977.0
20260508193056 81 0 0.0 0.0 0.00 0.00 0.00 91 977.0
20260508192533 83 0 0.0 0.0 0.00 0.00 0.00 86 977.0
20260508192009 82 0 0.0 0.0 0.00 0.00 0.00 88 977.0
20260508191442 83 0 0.0 0.0 0.00 0.00 0.00 83 977.0
20260508190919 83 0 0.0 0.0 0.00 0.00 0.00 84 977.0
20260508190354 83 0 0.0 0.0 0.00 0.00 0.00 83 977.0
20260508185829 83 0 0.0 0.0 0.00 0.00 0.00 82 977.0
20260508185306 83 0 0.0 0.0 0.00 0.00 0.00 83 978.0
20260508184740 84 0 0.0 0.0 0.00 0.00 0.00 81 978.0
20260508184224 84 0 0.0 0.0 0.00 0.00 0.00 82 978.0
20260508184216 84 0 0.0 0.0 0.00 0.00 0.00 82 978.0
20260508183650 84 0 0.0 0.0 0.00 0.00 0.00 82 978.0
20260508183123 83 0 0.0 0.0 0.00 0.00 0.00 83 978.0
20260508182601 83 0 0.0 0.0 0.00 0.00 0.00 84 978.0
20260508182559 83 0 0.0 0.0 0.00 0.00 0.00 84 978.0
20260508182035 83 0 0.0 0.0 0.00 0.00 0.00 85 978.0
20260508181508 83 0 0.0 0.0 0.00 0.00 0.00 87 979.0
20260508180945 84 0 0.0 0.0 0.00 0.00 0.00 86 979.0
20260508180402 84 0 0.0 0.0 0.00 0.00 0.00 87 979.0
20260508175834 82 0 0.0 0.0 0.00 0.00 0.00 92 979.0
20260508175311 82 0 0.0 0.0 0.00 0.00 0.00 92 979.0
20260508174743 82 0 0.0 0.0 0.00 0.00 0.00 93 979.0
20260508174219 82 0 0.0 0.0 0.00 0.00 0.00 90 979.0
20260508173656 84 0 0.0 0.0 0.00 0.00 0.00 85 979.0
20260508173132 84 0 0.0 0.0 0.00 0.00 0.00 83 979.0
20260508172606 84 0 0.0 0.0 0.00 0.00 0.00 85 979.0
20260508172048 0 0 0.0 0.0 0.00 0.00 0.00 85 979.0
20260508172045 83 0 0.0 0.0 0.00 0.00 0.00 85 979.0
20260508171518 83 0 0.0 0.0 0.00 0.00 0.00 86 979.0
20260508170954 84 0 0.0 0.0 0.00 0.00 0.00 85 979.0
20260508170432 83 0 0.0 0.0 0.00 0.00 0.00 88 979.0
20260508165908 83 0 0.0 0.0 0.00 0.00 0.00 85 979.0
20260508165352 83 0 0.0 0.0 0.00 0.00 0.00 86 979.0
20260508165340 0 0 0.0 0.0 0.00 0.00 0.00 86 979.0
20260508164817 83 0 0.0 0.0 0.00 0.00 0.00 86 979.0
20260508164252 83 0 0.0 0.0 0.00 0.00 0.00 85 979.0
20260508163728 84 0 0.0 0.0 0.00 0.00 0.00 86 979.0
20260508163202 83 0 0.0 0.0 0.00 0.00 0.00 87 979.0
20260508162637 83 0 0.0 0.0 0.00 0.00 0.00 88 979.0
20260508162114 83 0 0.0 0.0 0.00 0.00 0.00 87 979.0
20260508161550 83 0 0.0 0.0 0.00 0.00 0.00 88 979.0
20260508161023 83 0 0.0 0.0 0.00 0.00 0.00 88 979.0
20260508160500 83 0 0.0 0.0 0.00 0.00 0.00 90 979.0
20260508155935 83 0 0.0 0.0 0.00 0.00 0.00 89 979.0
20260508155411 84 0 0.0 0.0 0.00 0.00 0.00 86 979.0
20260508154848 83 0 0.0 0.0 0.00 0.00 0.00 88 979.0
20260508154322 84 0 0.0 0.0 0.00 0.00 0.00 88 979.0
20260508153758 84 0 0.0 0.0 0.00 0.00 0.00 89 979.0
20260508153235 84 0 0.0 0.0 0.00 0.00 0.00 86 979.0
20260508152710 83 0 0.0 0.0 0.00 0.00 0.00 91 979.0
20260508152146 84 0 0.0 0.0 0.00 0.00 0.00 88 979.0
20260508151622 83 0 0.0 0.0 0.00 0.00 0.00 90 979.0
20260508151100 84 0 0.0 0.0 0.00 0.00 0.00 86 979.0
20260508150544 84 0 0.0 0.0 0.00 0.00 0.00 89 979.0
20260508150534 84 0 0.0 0.0 0.00 0.00 0.00 89 979.0
20260508150010 82 0 0.0 0.0 0.00 0.00 0.00 94 979.0
20260508145445 82 0 0.0 0.0 0.00 0.00 0.00 93 979.0
20260508144920 83 0 0.0 0.0 0.00 0.00 0.00 89 979.0
20260508144355 84 0 0.0 0.0 0.00 0.00 0.00 86 979.0
20260508143829 83 0 0.0 0.0 0.00 0.00 0.00 89 979.0
20260508143306 83 0 0.0 0.0 0.00 0.00 0.00 87 979.0
20260508142740 82 0 0.0 0.0 0.00 0.00 0.00 90 979.0
20260508142221 82 0 0.0 0.0 0.00 0.00 0.00 91 979.0
20260508142217 82 0 0.0 0.0 0.00 0.00 0.00 91 979.0
20260508141653 82 0 0.0 0.0 0.00 0.00 0.00 91 979.0
20260508141128 82 0 0.0 0.0 0.00 0.00 0.00 93 979.0
20260508140605 83 0 0.0 0.0 0.00 0.00 0.00 90 979.0
20260508140043 82 0 0.0 0.0 0.00 0.00 0.00 92 979.0
20260508135517 82 0 0.0 0.0 0.00 0.00 0.00 91 979.0
20260508134953 83 0 0.0 0.0 0.00 0.00 0.00 88 979.0
20260508134429 82 0 0.0 0.0 0.00 0.00 0.00 91 979.0
20260508133906 82 0 0.0 0.0 0.00 0.00 0.00 90 979.0
20260508133341 83 0 0.0 0.0 0.00 0.00 0.00 90 979.0
20260508132817 82 0 0.0 0.0 0.00 0.00 0.00 90
20260508132256 82 0 0.0 0.0 0.00 0.00 0.00 90 979.0
20260508131730 83 0 0.0 0.0 0.00 0.00 0.00 88 978.0
20260508131205 83 0 0.0 0.0 0.00 0.00 0.00 86 978.0
20260508130640 85 0 0.0 0.0 0.00 0.00 0.00 82 978.0
20260508130115 84 0 0.0 0.0 0.00 0.00 0.00 83 978.0
20260508125550 85 0 0.0 0.0 0.00 0.00 0.00 82 978.0
20260508125024 84 0 0.0 0.0 0.00 0.00 0.00 84 978.0
20260508124502 84 0 0.0 0.0 0.00 0.00 0.00 86
20260508124500 84 0 0.0 0.0 0.00 0.00 0.00 86 978.0
20260508123935 84 0 0.0 0.0 0.00 0.00 0.00 85 978.0
20260508123414 83 0 0.0 0.0 0.00 0.00 0.00 90 978.0
20260508123411 83 0 0.0 0.0 0.00 0.00 0.00 90 978.0
20260508122847 82 0 0.0 0.0 0.00 0.00 0.00 93 977.0
20260508122321 82 0 0.0 0.0 0.00 0.00 0.00 92 977.0
20260508121755 82 0 0.0 0.0 0.00 0.00 0.00 91 977.0
20260508121234 82 0 0.0 0.0 0.00 0.00 0.00 90 977.0
20260508121232 82 0 0.0 0.0 0.00 0.00 0.00 90 977.0
20260508120705 83 0 0.0 0.0 0.00 0.00 0.00 88 977.0
20260508120140 83 0 0.0 0.0 0.00 0.00 0.00 89 977.0
20260508115616 83 0 0.0 0.0 0.00 0.00 0.00 88 977.0
20260508115052 82 0 0.0 0.0 0.00 0.00 0.00 91 977.0
20260508114527 83 0 0.0 0.0 0.00 0.00 0.00 91 977.0
20260508114003 83 0 0.0 0.0 0.00 0.00 0.00 92 977.0